#timestamp,LO_Frequency,Hit,StdDev 
1561226415.8,286047002.2,N
1561226435.6,286047001.5,N
1561226455.4,286047002.6,N
1561226475.3,286047002.0,N
1561226525.1,286047003.1,E
1561226535.0,286047001.8,N
1561226535.9,286047001.8,P
1561226555.8,286046998.4,P
1561226575.6,286047001.2,N
1561226595.4,286046999.0,N
1561226615.3,286047001.0,N
1561226635.1,286046999.5,N
1561226655.9,286046998.9,N
1561226675.7,286046998.1,N
1561226695.5,286046998.6,N
1561226715.4,286046998.3,N
1561226735.2,286046998.4,N
1561226755.0,286046999.4,N
1561226755.9,286046999.4,N
1561226775.8,286046999.6,N
1561226795.6,286046999.2,N
1561226815.5,286046999.3,N
1561226835.3,286046999.4,N
1561226855.1,286046998.7,N
1561226875.9,286046998.3,N
1561226895.7,286047000.9,N
1561226915.6,286047000.8,N
1561226935.4,286047000.9,N
1561226955.2,286047000.0,N
1561226975.1,286047002.6,N
1561226976.0,286047002.6,N
1561226995.8,286047002.1,N
1561227015.6,286047002.1,N
1561227035.5,286047004.4,Y
1561227055.3,286047003.6,P
1561227075.2,286047004.4,N
1561227095.9,286047003.2,N
1561227115.7,286047003.8,N
1561227135.6,286047003.5,N
1561227155.4,286047004.2,N
1561227175.2,286047003.8,N
1561227195.1,286047003.7,N
1561227196.0,286047003.7,N
1561227215.8,286047004.0,Y
1561227235.7,286046998.3,P
1561227255.5,286047000.8,N
1561227275.3,286046999.0,N
1561227295.2,286046999.4,N
1561227315.0,286046996.5,N
1561227315.9,286046996.5,N
1561227335.8,286046997.8,N
1561227355.6,286046995.1,N
1561227375.4,286046998.0,N
1561227395.3,286046996.1,N
1561227415.1,286046995.1,N
1561227435.8,286046997.8,N
1561227455.7,286046995.0,N
1561227475.5,286046998.0,N
1561227495.4,286046995.0,N
1561227515.2,286046995.8,N
1561227535.0,286046995.9,N
1561227535.9,286046995.9,N
1561227555.8,286046995.8,N
1561227575.6,286046995.1,N
1561227595.4,286046995.4,N
1561227615.3,286046995.3,N
1561227635.1,286046995.4,N
1561227655.9,286046995.2,N
1561227675.7,286046995.2,N
1561227695.5,286046995.3,N
1561227715.4,286046997.4,N
1561227735.2,286046996.2,N
1561227755.0,286046996.4,N
1561227755.9,286046996.4,N
1561227775.8,286046996.3,N
1561227795.6,286046996.2,N
1561227815.5,286046996.0,Y
1561227835.3,286046999.3,P
1561227855.1,286046999.5,N
1561227875.9,286046996.6,N
1561227895.7,286046996.7,N
1561227915.5,286046999.1,N
1561227935.4,286046999.5,N
1561227955.2,286046999.3,N
1561227975.1,286046998.9,N
1561227976.0,286046998.9,N
1561227995.8,286046998.8,N
1561228015.6,286046998.3,N
1561228035.5,286046998.6,N
1561228055.3,286046998.9,N
1561228075.2,286046998.2,N
1561228095.9,286046998.4,N
1561228115.7,286046998.5,N
1561228135.6,286046998.5,N
1561228155.4,286047000.7,N
1561228175.2,286047001.1,N
1561228195.1,286047001.2,N
1561228196.0,286047001.2,N
1561228215.8,286047000.6,N
1561228235.7,286047002.8,N
1561228255.5,286047000.3,N
1561228275.3,286047000.4,N
1561228295.2,286047002.7,N
1561228315.0,286047000.5,N
1561228315.9,286047000.5,N
1561228335.7,286047000.8,N
1561228355.6,286047000.6,N
1561228375.4,286047000.1,N
1561228395.3,286047000.1,N
1561228415.1,286046999.9,N
1561228435.8,286047000.1,N
1561228455.7,286047000.4,N
1561228475.5,286047000.4,N
1561228495.4,286047000.8,N
1561228515.2,286047001.1,N
1561228535.0,286046998.3,N
1561228535.9,286046998.3,N
1561228555.8,286047000.7,N
1561228575.6,286047002.4,N
1561228595.4,286046998.1,N
1561228615.3,286046998.7,N
1561228635.1,286046998.5,N
1561228655.9,286046998.9,N
1561228675.7,286047000.9,N
1561228695.5,286047002.3,N
1561228715.4,286046999.9,N
1561228735.2,286047002.5,N
1561228755.1,286046999.8,N
1561228756.0,286046999.8,N
1561228775.8,286046999.9,N
1561228795.6,286046999.8,N
1561228815.5,286047002.2,N
1561228835.3,286047002.6,N
1561228855.2,286046999.8,N
1561228875.9,286046999.8,N
1561228895.7,286047000.1,N
1561228915.6,286046999.9,N
1561228935.4,286046999.9,N
1561228955.2,286046999.9,N
1561228975.1,286047002.3,N
1561228976.0,286047002.3,N
1561228995.8,286047002.5,N
1561229015.7,286047002.6,N
1561229035.5,286047002.3,N
1561229055.3,286046999.9,N
1561229075.2,286047000.1,N
1561229095.0,286047000.9,N
1561229095.9,286047000.9,N
1561229115.8,286047000.7,N
1561229135.6,286047002.7,N
1561229155.4,286047001.6,N
1561229175.3,286047001.9,N
1561229195.1,286047001.9,N
1561229215.9,286047001.9,N
1561229235.7,286047002.6,N
1561229255.5,286047002.7,N
1561229275.4,286047002.8,N
1561229295.2,286047001.5,N
1561229315.0,286047000.2,N
1561229315.9,286047000.2,N
1561229335.8,286046999.8,N
1561229355.6,286047002.0,N
1561229375.5,286046999.8,N
1561229395.3,286047002.8,N
1561229415.1,286047002.1,N
1561229435.9,286047000.1,N
1561229455.7,286047000.9,N
1561229475.6,286047001.2,N
1561229495.4,286047000.5,N
1561229515.2,286047000.2,N
1561229535.1,286047000.9,N
1561229536.0,286047000.9,N
1561229555.8,286047000.4,N
1561229575.6,286047000.1,N
1561229595.5,286046999.8,N
1561229615.3,286047000.0,N
1561229635.2,286047000.9,N
1561229655.9,286047000.3,N
1561229675.7,286047002.7,N
1561229695.6,286047002.4,N
1561229715.4,286047002.2,N
1561229735.2,286047002.0,N
1561229755.1,286047001.8,N
1561229756.0,286047001.8,N
1561229775.8,286047002.0,N
1561229795.7,286047002.6,N
1561229815.5,286047002.7,N
1561229835.3,286047002.2,N
1561229855.2,286047002.0,N
1561229875.0,286047002.3,N
1561229875.9,286047002.3,N
1561229895.7,286047002.0,N
1561229915.6,286047002.5,N
1561229935.4,286047001.8,N
1561229955.3,286047002.1,N
1561229975.1,286047001.7,N
1561229976.0,286047001.7,N
1561229995.8,286047002.9,Y
